[[{"header":{"parameterUnit":"m.s-1","parameterCategory":1,"la1":30.2991,"la2":30.254,"lo1":-89.0895,"lo2":-89.0444,"dy":0.0017,"dx":0.0017,"nx":28,"ny":28,"refTime":"2023-08-08T21:00:00:Z","depth":0,"parameterNumber":2,"parameterNumberName":"U-component_of_WINDS"},"data":[0,0,0,0,0,0,0,0,0,0,0,0,0,0,0,0,0,0,0,0,0,0,0,0,0,0,0,0,0,0,0,0,0,0,0,0,0,0,0,0,0,0,0,0,0,0,0,0,0,0,0,0,0,0,0,0,0,0,1.1858,1.186,0,1.1998,1.1999,1.2001,1.2077,1.2077,1.2077,1.2078,1.2224,1.2228,1.2231,0,0,0,0,0,0,0,0,0,0,0,0,0,1.1662,1.1666,1.1858,1.186,1.1862,1.1997,1.1999,1.2001,1.2077,1.2077,1.2077,1.2078,1.2223,1.2227,1.2232,0,0,0,0,0,0,0,0,0,0,0,0,0,1.1769,1.1667,1.1858,1.1916,1.1922,1.1997,1.1999,1.2002,1.2077,1.2077,1.2078,1.2078,1.2221,1.2227,1.2232,1.2261,0,0,1.225,1.2252,0,0,0,0,0,0,0,0,1.1763,1.1776,1.1906,1.1912,1.1919,1.202,1.1984,1.2089,1.2077,1.2018,1.2078,1.2078,1.2156,1.2167,1.2193,1.2268,1.2274,1.225,1.2253,1.2256,1.2257,0,0,0,0,0,0,0,1.1756,1.1771,1.1913,1.1907,1.1916,1.1936,1.1952,1.2004,1.2084,1.2023,1.2029,1.2045,1.216,1.2187,1.2197,1.2277,1.225,1.2255,1.2258,1.226,1.2385,1.2385,0,0,0,0,0,0,1.1738,1.1764,1.1909,1.1918,1.184,1.194,1.1957,1.1988,1.2084,1.2099,1.2044,1.2048,1.2178,1.219,1.2202,1.2244,1.2256,1.2261,1.2264,1.2385,1.2385,1.2385,0,0,0,0,0,0,1.1734,1.175,1.1903,1.1843,1.1864,1.1943,1.1976,1.199,1.2017,1.2099,1.2114,1.2057,1.2178,1.2194,1.2246,1.225,1.2264,1.2269,1.2385,1.2385,1.2385,1.2326,0,0,0,0,0,0,1.1728,1.1748,1.1759,1.1842,1.1866,1.1943,1.1977,1.1993,1.2026,1.2032,1.2115,1.2129,1.218,1.2238,1.2252,1.2258,1.2273,1.2385,1.2385,1.2385,1.2328,1.2324,1.2321,0,0,0,0,0,1.1721,1.1737,1.1759,1.1776,1.1881,1.1943,1.1957,1.2014,1.2026,1.2039,1.2091,1.2127,1.2247,1.2242,1.2259,1.2267,1.2385,1.2385,1.2385,1.233,1.2325,1.2321,0,0,0,0,0,0,1.1653,1.1749,1.1774,1.1818,1.1872,1.1956,1.1973,1.2007,1.2059,1.2062,1.2131,1.215,1.2195,1.2236,1.2229,1.2301,1.232,1.2323,1.2272,1.2268,1.2265,1.2254,1.2278,0,0,0,0,0,1.1643,1.1684,1.1767,1.1797,1.1823,1.1893,1.1922,1.1961,1.202,1.2044,1.2101,1.2158,1.2209,1.2241,1.2292,1.2334,1.2355,1.2348,1.2344,1.2341,1.2343,1.2371,1.2369,1.2385,1.2385,1.2385,0,0,1.1624,1.1681,1.1703,1.1785,1.1832,1.1874,1.1912,1.1955,1.1988,1.2051,1.2103,1.2147,1.2215,1.2263,1.2287,1.2298,1.2343,1.2341,1.2337,1.2342,1.237,1.2369,1.2367,1.2384,1.2384,1.2384,0,0,1.161,1.1657,1.1688,1.1734,1.1803,1.185,1.1857,1.1937,1.1968,1.2021,1.207,1.2111,1.2196,1.2244,1.2279,1.2284,1.2319,1.2299,1.228,1.2305,1.2304,1.2303,1.2307,1.2307,1.2301,1.2301,1.23,0,1.1577,1.1642,1.17,1.1741,1.1777,1.1835,1.1868,1.191,1.1993,1.2017,1.2029,1.2138,1.2189,1.2249,1.225,1.2276,1.2288,1.229,1.2299,1.2299,1.23,1.2304,1.2304,1.2298,1.2298,1.2298,1.2299,0,1.1599,1.1643,1.1661,1.1739,1.1776,1.1813,1.1879,1.191,1.1946,1.1992,1.2047,1.2109,1.2174,1.2191,1.2227,1.2257,1.2263,1.2286,1.2307,1.2294,1.2299,1.2301,1.2294,1.2295,1.2295,1.2296,0,0,1.1547,1.1657,1.1662,1.1699,1.178,1.1816,1.1857,1.192,1.1946,1.2001,1.2038,1.211,1.2132,1.2172,1.2214,1.2236,1.2238,1.2257,1.226,1.2253,1.2278,1.226,1.2261,1.2262,1.2262,1.2263,1.2272,0,1.1545,1.1619,1.1674,1.1727,1.177,1.1826,1.1862,1.1916,1.1961,1.2005,1.2055,1.2105,1.2129,1.2154,1.2179,1.2233,1.2245,1.2233,1.2299,1.23,1.228,1.2263,1.2245,1.2251,1.2274,1.2275,1.2275,0,1.1554,1.1607,1.1664,1.1742,1.1762,1.1793,1.1856,1.1897,1.1961,1.1992,1.2036,1.2079,1.2126,1.2142,1.2209,1.2199,1.223,1.2261,1.2262,1.2272,1.2287,1.2273,1.2254,1.2255,1.2279,1.2278,1.2278,0,1.1511,1.1597,1.1643,1.1673,1.1764,1.1785,1.1824,1.1888,1.1923,1.1979,1.2002,1.2063,1.2096,1.2143,1.2202,1.2208,1.2263,1.2284,1.2292,1.229,1.2302,1.2301,1.2288,1.2319,1.2319,1.2319,1.2319,0,1.1505,1.1538,1.1626,1.1654,1.1694,1.1757,1.1795,1.1839,1.1896,1.1935,1.1988,1.2024,1.2099,1.2144,1.2191,1.224,1.2255,1.2282,1.2294,1.2278,1.2275,1.23,1.2301,1.2319,1.2319,1.2319,1.2319,0,1.1465,1.1524,1.1578,1.166,1.1682,1.1708,1.1779,1.181,1.1857,1.1906,1.1922,1.1996,1.2053,1.2116,1.2194,1.2225,1.2272,1.2289,1.225,1.2257,1.2262,1.2261,1.2267,1.2271,1.2297,1.2297,1.2297,0,1.1457,1.1484,1.1569,1.1599,1.1637,1.1684,1.172,1.1783,1.1819,1.1894,1.1916,1.1976,1.2028,1.2116,1.2178,1.2239,1.2258,1.2256,1.2268,1.2251,1.226,1.2258,1.2262,1.2253,1.2252,1.2252,1.2251,0,1.1438,1.1466,1.1515,1.1575,1.1616,1.1666,1.1719,1.1741,1.1815,1.1853,1.1911,1.1951,1.203,1.209,1.2158,1.2201,1.2239,1.2247,1.2252,1.2237,1.2213,1.2227,1.2242,1.2247,1.2247,1.2248,1.2248,1.2248,1.1415,1.1442,1.1507,1.156,1.1606,1.1654,1.1687,1.1739,1.1788,1.1857,1.1892,1.195,1.2015,1.211,1.2151,1.2199,1.2211,1.2218,1.2221,1.2222,1.2218,1.2205,1.2211,1.2212,1.2212,1.2212,1.2212,0,1.14,1.1444,1.1493,1.1564,1.1607,1.1637,1.1698,1.1732,1.1782,1.1838,1.1888,1.1956,1.2014,1.2081,1.2144,1.217,1.2189,1.2184,1.2184,1.2193,1.2203,1.2192,1.2168,1.2168,1.2168,1.2168,1.2168,1.2168,1.1397,1.1445,1.1481,1.1553,1.1598,1.1655,1.1686,1.1732,1.1778,1.185,1.1899,1.1941,1.2003,1.2071,1.2127,1.2145,1.2167,1.2157,1.2181,1.2189,1.2192,1.2196,1.2187,1.2161,1.2161,1.2168,1.2168,1.2168]},{"header":{"parameterUnit":"m.s-1","parameterCategory":1,"la1":30.2991,"la2":30.254,"lo1":-89.0895,"lo2":-89.0444,"dy":0.0017,"dx":0.0017,"nx":28,"ny":28,"refTime":"2023-08-08T21:00:00:Z","depth":0,"parameterNumber":3,"parameterNumberName":"V-component_of_WINDS"},"data":[0,0,0,0,0,0,0,0,0,0,0,0,0,0,0,0,0,0,0,0,0,0,0,0,0,0,0,0,0,0,0,0,0,0,0,0,0,0,0,0,0,0,0,0,0,0,0,0,0,0,0,0,0,0,0,0,0,0,5.5527,5.5526,0,5.5517,5.5516,5.5516,5.5471,5.547,5.5468,5.5467,5.5457,5.5458,5.5458,0,0,0,0,0,0,0,0,0,0,0,0,0,5.5507,5.5507,5.5527,5.5526,5.5526,5.5517,5.5516,5.5516,5.5471,5.5469,5.5468,5.5467,5.5457,5.5458,5.5459,0,0,0,0,0,0,0,0,0,0,0,0,0,5.5508,5.5508,5.5527,5.5502,5.55,5.5517,5.5516,5.5516,5.5471,5.5469,5.5468,5.5466,5.5457,5.5458,5.5459,5.5497,0,0,5.5462,5.5462,0,0,0,0,0,0,0,0,5.5508,5.5509,5.5506,5.5504,5.5502,5.5493,5.5506,5.551,5.5471,5.5482,5.5467,5.5466,5.547,5.547,5.5472,5.5497,5.5497,5.5462,5.5463,5.5463,5.5464,0,0,0,0,0,0,0,5.5508,5.5509,5.5523,5.5506,5.5503,5.5492,5.5491,5.5506,5.5485,5.5481,5.5478,5.5477,5.5469,5.5471,5.5471,5.5496,5.5462,5.5463,5.5464,5.5464,5.5554,5.5555,0,0,0,0,0,0,5.5511,5.5509,5.5523,5.5522,5.5501,5.5494,5.5492,5.5498,5.5485,5.5482,5.5479,5.5475,5.547,5.547,5.5471,5.5516,5.5463,5.5464,5.5465,5.5552,5.5554,5.5556,0,0,0,0,0,0,5.5511,5.5513,5.5523,5.5515,5.5515,5.5496,5.5502,5.5498,5.55,5.5483,5.5479,5.5484,5.5469,5.5469,5.5491,5.5515,5.5465,5.5466,5.555,5.5553,5.5555,5.5606,0,0,0,0,0,0,5.5511,5.5513,5.5527,5.5515,5.5516,5.5544,5.5504,5.5499,5.5502,5.5498,5.5488,5.5485,5.5467,5.549,5.5492,5.5516,5.5467,5.5548,5.5551,5.5554,5.5603,5.561,5.5617,0,0,0,0,0,5.551,5.5542,5.5528,5.553,5.5533,5.5546,5.5546,5.5525,5.5504,5.5519,5.5508,5.5485,5.5512,5.5493,5.5495,5.5519,5.5546,5.555,5.5554,5.5599,5.5609,5.5617,0,0,0,0,0,0,5.5557,5.554,5.5525,5.5554,5.5552,5.5538,5.5555,5.5536,5.554,5.5535,5.551,5.5508,5.5534,5.5528,5.5507,5.5556,5.5525,5.553,5.5559,5.5568,5.5575,5.5576,5.5467,0,0,0,0,0,5.5571,5.5582,5.5566,5.5594,5.5593,5.5575,5.5579,5.5564,5.556,5.5559,5.555,5.5548,5.5556,5.5561,5.5568,5.5602,5.5599,5.5619,5.5626,5.5633,5.5637,5.5655,5.5664,5.5569,5.5569,5.5569,0,0,5.5599,5.5591,5.56,5.5603,5.5599,5.5612,5.5574,5.5589,5.5598,5.5561,5.5582,5.5575,5.5571,5.5599,5.5611,5.5595,5.5663,5.5638,5.5643,5.5644,5.566,5.5669,5.5677,5.5571,5.5571,5.5571,0,0,5.5657,5.5653,5.5675,5.5672,5.5668,5.5655,5.5661,5.565,5.5645,5.5665,5.5638,5.5648,5.5663,5.5661,5.5662,5.5721,5.57,5.5724,5.5762,5.578,5.5788,5.5794,5.5816,5.5824,5.5728,5.5728,5.5728,0,5.5693,5.5711,5.5689,5.5706,5.5708,5.5676,5.5699,5.5697,5.5695,5.5698,5.568,5.5697,5.5692,5.572,5.5735,5.5736,5.5742,5.5725,5.5788,5.5795,5.5801,5.5821,5.5829,5.5731,5.5731,5.573,5.573,0,5.5756,5.5769,5.5787,5.5787,5.5791,5.5811,5.5792,5.5799,5.5784,5.5773,5.5795,5.5787,5.5792,5.5798,5.5782,5.5824,5.5814,5.5793,5.5761,5.5813,5.5832,5.5839,5.5735,5.5734,5.5733,5.5732,0,0,5.5843,5.583,5.5838,5.5837,5.583,5.584,5.5858,5.5863,5.587,5.587,5.5885,5.5898,5.5879,5.588,5.5864,5.588,5.5928,5.5857,5.5856,5.5871,5.5974,5.5991,5.6,5.5914,5.5916,5.5917,5.5975,0,5.5899,5.593,5.5911,5.5945,5.5957,5.5928,5.5944,5.5941,5.5932,5.5941,5.5931,5.5941,5.5914,5.5915,5.5929,5.5919,5.5949,5.5915,5.5929,5.5929,5.5931,5.601,5.6027,5.6083,5.5982,5.5983,5.5984,0,5.5969,5.5972,5.6008,5.5999,5.6003,5.6018,5.6022,5.6031,5.6028,5.602,5.6022,5.6003,5.602,5.5989,5.6014,5.5991,5.5996,5.5992,5.5994,5.5995,5.596,5.6014,5.61,5.6108,5.5995,5.5995,5.5994,0,5.603,5.6043,5.6066,5.6067,5.6057,5.6069,5.6065,5.606,5.6065,5.6068,5.6071,5.6076,5.6079,5.6083,5.6066,5.6045,5.6093,5.606,5.6088,5.6089,5.61,5.6099,5.6188,5.6102,5.6102,5.6102,5.6101,0,5.6095,5.6118,5.6094,5.6108,5.6133,5.6111,5.6137,5.613,5.6127,5.6139,5.6113,5.6126,5.6102,5.6112,5.6099,5.6122,5.6123,5.6118,5.6114,5.6121,5.6121,5.6124,5.612,5.6104,5.6103,5.6103,5.6102,0,5.6167,5.6152,5.6175,5.6165,5.6163,5.6182,5.6173,5.6186,5.6175,5.6192,5.6194,5.6178,5.6189,5.6172,5.618,5.6171,5.6204,5.6193,5.6205,5.6202,5.6231,5.6229,5.6325,5.6337,5.6242,5.6243,5.6244,0,5.621,5.6227,5.6219,5.6226,5.6224,5.6235,5.624,5.6219,5.6225,5.6224,5.6237,5.6246,5.6252,5.627,5.6259,5.6266,5.6256,5.629,5.6257,5.6264,5.6258,5.6257,5.6259,5.6296,5.6298,5.6299,5.6299,0,5.6288,5.628,5.6288,5.6294,5.63,5.6303,5.6305,5.6312,5.629,5.6298,5.6309,5.6314,5.6323,5.6332,5.6337,5.6333,5.6313,5.631,5.6316,5.6324,5.633,5.6328,5.6224,5.6308,5.6307,5.6306,5.6306,5.6305,5.6347,5.6362,5.6358,5.6368,5.6368,5.637,5.6382,5.6373,5.6382,5.6388,5.6375,5.639,5.6387,5.639,5.6389,5.64,5.6386,5.6395,5.6398,5.6401,5.6406,5.6328,5.6401,5.6401,5.64,5.64,5.64,0,5.6425,5.6421,5.6431,5.6434,5.6442,5.6423,5.6424,5.6432,5.6445,5.6444,5.6451,5.6464,5.6473,5.6463,5.647,5.6481,5.6472,5.6484,5.6483,5.6483,5.6418,5.6412,5.6491,5.6491,5.6491,5.6491,5.6491,5.6491,5.6466,5.649,5.6481,5.6504,5.6501,5.6515,5.6517,5.6519,5.6519,5.6535,5.6542,5.6536,5.6531,5.6538,5.6546,5.6543,5.6547,5.6562,5.6556,5.6496,5.6487,5.6479,5.6473,5.6563,5.6563,5.6619,5.662,5.662]}]]